Regional Weather Roundup
Issued by NWS

Home | Current Version | Previous Version | Graphics & Text | Print | Product List | Glossary Off
Versions: 1 2 3 4 5 6 7 8 9 10 11 12 13 14 15 16 17 18 19 20 21 22 23 24 25 26 27 28 29 30 31 32 33 34 35 36 37 38 39 40 41 42 43 44 45 46 47 48 49 50

000
ASUS43 KMPX 220910
RWRMN
WEATHER ROUNDUP FOR MINNESOTA
NATIONAL WEATHER SERVICE TWIN CITIES/CHANHASSEN MN
400 AM CDT FRI SEP 22 2017


NOTE: "FAIR" INDICATES FEW OR NO CLOUDS BELOW 12,000 FEET WITH NO
SIGNIFICANT WEATHER AND/OR OBSTRUCTIONS TO VISIBILITY. N/A MEANS
CURRENT SKY AND/OR WEATHER CONDITIONS ARE NOT AVAILABLE.

MNZ060>063-068>070-221000-
   Twin Cities Metro

CITY           SKY/WX    TMP DP  RH WIND       PRES   REMARKS
TWIN CITIES    CLEAR     74  70  87 SE10      29.83R
ST PAUL        CLEAR     73  69  87 SE14      29.83S
CRYSTAL        CLEAR     75  66  73 SE8       29.81R
BLAINE         CLEAR     75  70  83 SE10      29.83R
LAKEVILLE      CLEAR     70  70 100 SE5       29.84R
EDEN PRAIRIE   CLEAR     75  69  81 SE9       29.81S
SOUTH ST PAUL  CLEAR     73  67  81 SE7       29.83S
LAKE ELMO      FAIR      73  68  83 SE7       29.86S
$$
MNZ001>005-007-008-013>017-022>024-027-028-221000-
   Northwest Minnesota

CITY           SKY/WX    TMP DP  RH WIND       PRES   REMARKS
BEMIDJI        CLOUDY    61  61 100 E6        29.80S FOG
HALLOCK          N/A     57  52  82 N14G20    29.79R
ROSEAU           N/A     61  55  82 SE6       29.79R
WARROAD        CLEAR     61  55  82 SE7       29.78S
THIEF RVR FALL CLOUDY    60  57  89 N6        29.78F
CROOKSTON      CLOUDY    63  59  88 NE5       29.76S
FOSSTON        CLOUDY    64  61  88 SE5       29.78R
DETROIT LAKES  CLOUDY    68  64  88 CALM      29.76F
MOORHEAD       CLOUDY    66  64  94 CALM      29.73R FOG
PARK RAPIDS    CLOUDY    68  66  93 E8        29.78R
MAHNOMEN       FAIR      67  65  95 SE5       29.75S
$$
MNZ006-009>011-018-025>026-221000-
   North Central Minnesota

CITY           SKY/WX    TMP DP  RH WIND       PRES   REMARKS
BAUDETTE       CLOUDY    60  59  96 SE7       29.80R
FLAG ISLAND    PTCLDY    63  55  77 SE5       29.75F
INTL FALLS     MOCLDY    61  59  93 CALM      29.84R
WASKISH        PTCLDY    63  63 100 E5        29.81R
BIG FORK       CLOUDY    64  63  94 S5        29.84R
LONGVILLE      CLOUDY    66  64  94 CALM      29.81S
GRAND RAPIDS   CLOUDY    66  64  93 SE7       29.86R THUNDER
CRANE LAKE     CLOUDY    55  55 100 CALM      29.85S
ORR            CLOUDY    63  57  82 S3        29.83R
COOK           CLOUDY    66  63  88 S6        29.86R
WALKER         PTSUNNY   64  64  97 CALM      29.80S
$$
MNZ012-019>021-037-221000-
   Northeast Minnesota

CITY           SKY/WX    TMP DP  RH WIND       PRES   REMARKS
DULUTH         CLOUDY    60  59  96 SE5       29.87R
ELY            CLOUDY    64  63  94 S3        29.87R
HIBBING        LGT RAIN  60  59  96 CALM      29.85S
EVELETH        CLOUDY    65  59  82 W5        29.89R
DULUTH HARBOR  CLOUDY    61  59  94 NE10      29.87R
TWO HARBORS    LGT RAIN  63  57  82 CALM      29.87R
SILVER BAY     CLOUDY    61  59  94 CALM      29.88R
GRAND MARAIS     N/A     62  60  93 NE3       29.88S
G MARAIS ARPRT   N/A     63  59  88 SE3       29.93S
$$
MNZ029>031-032-039>041-046>048-054>057-064-221000-
   West Central Minnesota

CITY           SKY/WX    TMP DP  RH WIND       PRES   REMARKS
FERGUS FALLS   TSTM      72  72 100 SW9       29.74S
WHEATON        CLOUDY    66  63  88 E8        29.74F
MORRIS         CLOUDY    73  72  94 S5        29.75R THUNDER
ALEXANDRIA     CLOUDY    74  71  91 S15G22    29.76R
ELBOW LAKE     TSTM      65  61  88 NW3       29.78R
WADENA         CLOUDY    66  66 100 E6        29.75S FOG
GLENWOOD       CLOUDY    73  72  94 S10       29.76R
APPLETON       CLOUDY    73  70  88 SE9       29.71S
BENSON         PTCLDY    75  70  83 SE9G16    29.75R
ORTONVILLE     CLOUDY    72  68  88 N6        29.74R FOG
MADISON        CLEAR     73  73 100 E6        29.71R FOG
WILLMAR        FAIR      73  72  94 SE10      29.76S
$$
MNZ033>034-036-042>043-049>051-058-059-221000-
   Central Minnesota

CITY           SKY/WX    TMP DP  RH WIND       PRES   REMARKS
ST CLOUD       PTCLDY    74  71  91 SE8       29.79S
SAUK CENTRE    PTSUNNY   73  70  90 SE10      29.76F
PAYNESVILLE    CLOUDY    74  70  87 SE12G17   29.78S
AITKIN         CLOUDY    70  66  88 SE3       29.81R
PINE RIVER     CLOUDY    64  63  94 E5        29.83S
BRAINERD       PTCLDY    70  69  97 SE6       29.80S
STAPLES        CLOUDY    66  66 100 E5        29.75F
LITTLE FALLS   PTCLDY    70  64  83 SE7       29.77F
LITCHFIELD     CLEAR     75  72  88 SE7       29.79S
BUFFALO        CLEAR     74  68  81 SE3       29.81S
MAPLE LAKE     CLEAR     75  71  86 SE5       29.81S
HUTCHINSON     CLEAR     75  71  88 SE6       29.80R
$$
MNZ037-044-045-052-053-221000-
   East Central Minnesota

CITY           SKY/WX    TMP DP  RH WIND       PRES   REMARKS
PRINCETON      PTCLDY    73  70  88 SE7       29.81S
MORA           CLEAR     68  64  88 S3        29.84S
CAMBRIDGE      PTCLDY    75  64  69 S9        29.82S
RUSH CITY      PTCLDY    73  67  83 S7        29.83S
MOOSE LAKE     CLOUDY    59  59 100 N5        29.84R
HINCKLEY       FAIR      72  68  88 S3        29.83S
CLOQUET        CLOUDY    61  57  88 NW5       29.88R
MCGREGOR       CLOUDY    68  64  88 SE6       29.84S
$$
MNZ071>073-080-081-089-090-097-098-221000-
   Southwest Minnesota

CITY           SKY/WX    TMP DP  RH WIND       PRES   REMARKS
MONTEVIDEO     CLEAR     72  72 100 S6        29.72S FOG
GRANITE FALLS  CLEAR     75  73  91 SE8       29.74S
CANBY          CLEAR     78  72  83 SW10G20   29.71S
MARSHALL       CLEAR     77  73  87 S16       29.72R
REDWOOD FALLS  PTCLDY    75  70  84 S10       29.74S
OLIVIA         CLEAR     72  70  94 SE8       29.75R
PIPESTONE      CLEAR     75  72  88 S14G21    29.76R
WINDOM         CLEAR     75  70  83 S12       29.79S
WORTHINGTON    CLEAR     75  71  87 S14G21    29.79S
JACKSON        CLOUDY    73  70  88 S12G20    29.81F
TRACY          PTCLDY    76  73  91 S12G17    29.75S
SLAYTON        PTCLDY    75  70  85 S13G18    29.78S
$$
MNZ065>067-074>077-082>085-091>093-221000-
   South Central Minnesota

CITY           SKY/WX    TMP DP  RH WIND       PRES   REMARKS
MANKATO        CLEAR     76  70  82 S12G18    29.81S
NEW ULM        CLEAR     75  70  83 S13       29.78S
ST JAMES       CLEAR     75  70  83 S14G20    29.79F
FAIRMONT       CLEAR     75  70  84 S15       29.81F
GLENCOE        CLEAR     75  73  92 SE7       29.79S
FARIBAULT      CLEAR     73  70  88 SE9       29.84S
OWATONNA       CLEAR     75  70  83 S13G18    29.84S
WASECA         CLEAR     73  68  83 S10G20    29.84S
ALBERT LEA     CLEAR     75  70  83 S9        29.86S
$$
MNZ078>079-086>088-094>096-221000-
   Southeast Minnesota

CITY           SKY/WX    TMP DP  RH WIND       PRES   REMARKS
ROCHESTER      CLEAR     71  68  90 S13       29.90S
RED WING       CLEAR     73  66  78 SE8       29.86S
STANTON        CLEAR     74  68  80 SE7       29.83S
DODGE CENTER   CLEAR     73  66  78 S16       29.87F
WINONA         CLEAR     72  68  88 CALM      29.91S
AUSTIN         CLEAR     73  68  83 S8        29.88S
PRESTON        CLEAR     72  68  87 S10       29.92S
$$
ABBREVIATIONS USED IN REMARKS
   TC - TEMPERATURES IN CELSIUS
  WCI - WIND CHILL INDEX
   HX - HEAT INDEX
  VSB - VISIBILITY
$$




USA.gov is the U.S. government's official web portal to all federal, state and local government web resources and services.